OZ7MKS Weather Reports


time (UTC)temp
F
wind
direction
speed
knots
gust
knots
rain 1hr
in
rain 24hr
in
rain mn
in
humidity
%
barometer
mb
20260502232003 51 245 1.7 7.0 0.00 0.00 0.00 94 1011.9
20260502231004 51 238 4.3 8.7 0.00 0.00 0.00 93 1011.9
20260502225504 50 233 2.6 12.2 0.00 0.00 0.00 93 1011.9
20260502225003 50 226 4.3 8.7 0.00 0.00 0.00 93 1011.9
20260502224003 51 256 2.6 7.8 0.00 0.00 0.00 93 1012.0
20260502223503 51 261 4.3 7.8 0.00 0.00 0.00 93 1012.0
20260502223004 51 248 4.3 8.7 0.00 0.00 0.00 93 1012.1
20260502222504 51 240 5.2 10.4 0.00 0.00 0.00 93 1012.1
20260502222004 51 242 5.2 10.4 0.00 0.00 0.00 93 1012.1
20260502221503 51 245 7.8 17.4 0.00 0.00 0.00 93 1012.0
20260502221004 51 226 5.2 12.2 0.00 0.00 0.00 93 1012.0
20260502220504 51 235 4.3 10.4 0.00 0.00 0.00 93 1012.1
20260502220004 51 241 5.2 8.7 0.00 0.00 0.00 93 1012.0
20260502215503 52 255 5.2 13.0 0.00 0.00 0.00 92 1011.9
20260502214504 52 242 4.3 10.4 0.00 0.00 0.00 92 1011.9
20260502213503 53 236 2.6 5.2 0.00 0.00 0.00 92 1011.9
20260502213004 53 256 2.6 4.3 0.00 0.00 0.00 92 1011.7
20260502212504 54 227 2.6 6.1 0.00 0.00 0.00 92 1011.6
20260502211504 54 232 4.3 10.4 0.00 0.00 0.00 92 1011.8
20260502210504 54 232 4.3 8.7 0.00 0.00 0.00 91 1011.9
20260502210004 55 236 2.6 7.0 0.00 0.00 0.00 91 1011.8
20260502205504 55 224 3.5 7.0 0.00 0.00 0.00 91 1011.8
20260502204504 55 223 2.6 6.1 0.00 0.00 0.00 91 1011.7
20260502204003 56 234 2.6 6.1 0.00 0.00 0.00 90 1011.8
20260502203504 56 205 3.5 7.8 0.00 0.00 0.00 90 1011.9
20260502203004 56 212 2.6 6.1 0.00 0.00 0.00 90 1011.9
20260502202503 56 220 2.6 7.0 0.00 0.00 0.00 89 1012.0
20260502201503 57 224 1.7 7.0 0.00 0.00 0.00 89 1011.9
20260502201004 57 220 3.5 7.0 0.00 0.00 0.00 89 1011.9
20260502200504 57 228 2.6 6.1 0.00 0.00 0.00 89 1012.0
20260502200003 57 206 2.6 6.1 0.00 0.00 0.00 89 1012.0
20260502195503 57 221 2.6 6.1 0.00 0.00 0.00 89 1012.0
20260502195004 58 212 1.7 2.6 0.00 0.00 0.00 88 1012.1
20260502194504 58 230 2.6 8.7 0.00 0.00 0.00 88 1012.0
20260502194003 58 204 0.9 2.6 0.00 0.00 0.00 88 1011.9
20260502193504 58 229 1.7 5.2 0.00 0.00 0.00 88 1012.0
20260502193004 58 203 1.7 6.1 0.00 0.00 0.00 87 1012.1
20260502192004 58 237 2.6 6.1 0.00 0.00 0.00 87 1012.0
20260502191504 59 211 2.6 5.2 0.00 0.00 0.00 87 1012.0
20260502191003 59 236 2.6 6.1 0.00 0.00 0.00 87 1012.0
20260502190503 59 262 1.7 7.0 0.00 0.00 0.00 86 1012.0
20260502190004 60 237 2.6 5.2 0.00 0.00 0.00 86 1011.9
20260502185504 60 205 1.7 4.3 0.00 0.00 0.00 86 1011.8
20260502185003 60 186 2.6 7.0 0.00 0.00 0.00 85 1011.8
20260502184004 60 233 1.7 7.0 0.00 0.00 0.00 84 1011.8
20260502183003 60 207 1.7 5.2 0.00 0.00 0.00 85 1012.0
20260502182503 61 236 1.7 6.1 0.00 0.00 0.00 84 1012.0
20260502182004 61 235 1.7 2.6 0.00 0.00 0.00 84 1012.1
20260502181504 61 234 0.9 4.3 0.00 0.00 0.00 84 1012.1
20260502181004 61 240 2.6 4.3 0.00 0.00 0.00 84 1012.2
20260502180504 61 243 1.7 7.0 0.00 0.00 0.00 83 1012.2
20260502170504 63 233 4.3 7.0 0.00 0.00 0.00 82 1012.4
20260502164004 64 248 3.5 7.8 0.00 0.00 0.00 80 1012.6
20260502163503 64 246 2.6 8.7 0.00 0.00 0.00 79 1012.5
20260502163003 64 246 5.2 11.3 0.00 0.00 0.00 79 1012.7
20260502162503 64 243 6.1 12.2 0.00 0.00 0.00 78 1012.7
20260502162004 65 250 5.2 10.4 0.00 0.00 0.00 78 1012.7
20260502161503 65 240 4.3 11.3 0.00 0.00 0.00 78 1012.6
20260502161004 65 252 4.3 10.4 0.00 0.00 0.00 77 1012.7
20260502152004 71 233 6.1 14.8 0.00 0.00 0.00 70 1012.7
20260502151504 71 248 8.7 13.9 0.00 0.00 0.00 69 1012.7
20260502151003 72 247 5.2 13.0 0.00 0.00 0.00 70 1012.7
20260502150504 72 241 5.2 12.2 0.00 0.00 0.00 69 1012.8
20260502130504 76 231 5.2 14.8 0.00 0.00 0.00 44 1013.2
20260502123504 76 218 5.2 17.4 0.00 0.00 0.00 45 1013.5
20260502123004 75 227 7.0 13.0 0.00 0.00 0.00 45 1013.5
20260502122504 75 229 7.8 13.9 0.00 0.00 0.00 43 1013.6
20260502122004 76 238 9.6 17.4 0.00 0.00 0.00 43 1013.7
20260502121503 76 243 6.1 12.2 0.00 0.00 0.00 44 1013.6
20260502121004 76 229 6.1 13.9 0.00 0.00 0.00 44 1013.8
20260502120504 75 219 5.2 14.8 0.00 0.00 0.00 44 1013.8
20260502115504 76 221 7.0 13.9 0.00 0.00 0.00 44 1013.9
20260502115003 75 202 7.8 15.6 0.00 0.00 0.00 45 1014.0
20260502114504 75 222 5.2 14.8 0.00 0.00 0.00 46 1014.0
20260502114004 75 249 7.0 15.6 0.00 0.00 0.00 46 1014.0
20260502113503 75 240 7.8 13.9 0.00 0.00 0.00 45 1014.0
20260502113004 75 224 7.8 13.9 0.00 0.00 0.00 45 1014.0
20260502112504 75 225 7.0 13.9 0.00 0.00 0.00 45 1014.1
20260502112003 75 222 5.2 17.4 0.00 0.00 0.00 46 1014.1
20260502111504 75 216 6.1 13.9 0.00 0.00 0.00 46 1014.2
20260502111004 75 219 5.2 13.9 0.00 0.00 0.00 47 1014.3
20260502110504 75 254 6.1 17.4 0.00 0.00 0.00 46 1014.3
20260502110004 75 221 7.0 13.9 0.00 0.00 0.00 46 1014.4
20260502105503 74 216 6.1 12.2 0.00 0.00 0.00 46 1014.3
20260502105003 74 229 5.2 11.3 0.00 0.00 0.00 47 1014.4
20260502104503 74 236 6.1 12.2 0.00 0.00 0.00 47 1014.4
20260502104004 74 256 3.5 10.4 0.00 0.00 0.00 49 1014.4
20260502103503 74 204 7.0 14.8 0.00 0.00 0.00 48 1014.5
20260502103004 74 233 5.2 11.3 0.00 0.00 0.00 49 1014.5
20260502102504 73 238 2.6 12.2 0.00 0.00 0.00 51 1014.6
20260502102003 73 205 5.2 13.9 0.00 0.00 0.00 50 1014.7
20260502101504 73 223 7.0 13.9 0.00 0.00 0.00 50 1014.8
20260502101004 73 215 5.2 11.3 0.00 0.00 0.00 51 1014.7
20260502100504 73 207 5.2 10.4 0.00 0.00 0.00 52 1014.8
20260502091504 71 224 5.2 12.2 0.00 0.00 0.00 56 1015.2
20260502091003 70 203 5.2 11.3 0.00 0.00 0.00 59 1015.3
20260502090504 70 208 5.2 8.7 0.00 0.00 0.00 59 1015.3
20260502071504 63 200 4.3 7.0 0.00 0.00 0.00 73 1016.0
20260502071003 62 229 2.6 7.0 0.00 0.00 0.00 74 1016.1
20260502065504 61 203 1.7 6.1 0.00 0.00 0.00 76 1016.1
20260502065004 61 198 1.7 6.1 0.00 0.00 0.00 76 1016.1
20260502064504 60 213 1.7 6.1 0.00 0.00 0.00 76 1016.1
20260502063504 60 194 1.7 6.1 0.00 0.00 0.00 76 1016.1
20260502062504 58 192 1.7 7.0 0.00 0.00 0.00 77 1016.2
20260502062004 58 194 3.5 7.0 0.00 0.00 0.00 77 1016.2
20260502060504 56 200 2.6 6.1 0.00 0.00 0.00 78 1016.4
20260502055003 55 198 2.6 8.7 0.00 0.00 0.00 78 1016.5
20260502053504 54 207 1.7 2.6 0.00 0.00 0.00 79 1016.5
20260502053004 54 212 2.6 7.0 0.00 0.00 0.00 79 1016.6
20260502052504 54 215 1.7 5.2 0.00 0.00 0.00 80 1016.6
20260502052003 53 203 2.6 6.1 0.00 0.00 0.00 80 1016.6
20260502051504 53 206 1.7 5.2 0.00 0.00 0.00 80 1016.6
20260502051004 53 234 1.7 7.0 0.00 0.00 0.00 81 1016.6
20260502050504 52 232 2.6 6.1 0.00 0.00 0.00 81 1016.6
20260502050004 52 201 2.6 7.0 0.00 0.00 0.00 81 1016.6
20260502045004 51 229 1.7 2.6 0.00 0.00 0.00 82 1016.7
20260502044504 51 199 1.7 5.2 0.00 0.00 0.00 82 1016.7
20260502044004 51 193 1.7 5.2 0.00 0.00 0.00 82 1016.8
20260502043503 51 251 2.6 6.1 0.00 0.00 0.00 82 1016.8
20260502043004 51 206 0.9 4.3 0.00 0.00 0.00 82 1016.8
20260502042503 51 269 0.9 5.2 0.00 0.00 0.00 82 1016.8
20260502042004 50 222 1.7 7.0 0.00 0.00 0.00 82 1016.9
20260502041504 50 245 1.7 2.6 0.00 0.00 0.00 82 1016.9
20260502040504 50 210 1.7 6.1 0.00 0.00 0.00 82 1016.9
20260502035503 50 228 1.7 7.8 0.00 0.00 0.00 82 1017.0
20260502034004 50 186 1.7 5.2 0.00 0.00 0.00 82 1017.2
20260502033504 50 216 1.7 4.3 0.00 0.00 0.00 82 1017.2
20260502033004 50 198 0.9 2.6 0.00 0.00 0.00 82 1017.4
20260502032503 50 191 1.7 6.1 0.00 0.00 0.00 82 1017.4
20260502032004 50 219 0.9 6.1 0.00 0.00 0.00 82 1017.5
20260502031003 50 200 1.7 4.3 0.00 0.00 0.00 82 1017.6
20260502030503 50 209 2.6 7.0 0.00 0.00 0.00 82 1017.7
20260502030004 50 184 1.7 6.1 0.00 0.00 0.00 82 1017.7
20260502025503 50 181 0.9 4.3 0.00 0.00 0.00 82 1017.8
20260502025003 50 185 2.6 5.2 0.00 0.00 0.00 82 1017.9
20260502024504 50 207 1.7 6.1 0.00 0.00 0.00 82 1018.0
20260502024004 50 225 0.9 6.1 0.00 0.00 0.00 82 1018.0
20260502023504 50 198 0.9 4.3 0.00 0.00 0.00 83 1018.1
20260502023003 49 218 1.7 4.3 0.00 0.00 0.00 83 1018.2
20260502022503 49 212 1.7 2.6 0.00 0.00 0.00 83 1018.2
20260502022004 49 222 0.9 2.6 0.00 0.00 0.00 83 1018.3
20260502021504 49 223 0.0 2.6 0.00 0.00 0.00 84 1018.4
20260502021004 49 225 0.9 2.6 0.00 0.00 0.00 84 1018.5
20260502020504 49 215 0.9 1.7 0.00 0.00 0.00 84 1018.5
20260502020004 49 216 0.9 1.7 0.00 0.00 0.00 85 1018.6
20260502015504 49 218 0.0 1.7 0.00 0.00 0.00 86 1018.7
20260502015004 48 219 1.7 2.6 0.00 0.00 0.00 86 1018.8
20260502014504 48 207 0.9 2.6 0.00 0.00 0.00 87 1018.8
20260502014004 48 205 0.0 0.9 0.00 0.00 0.00 87 1018.9
20260502013504 48 205 0.0 2.6 0.00 0.00 0.00 88 1018.9
20260502013003 48 177 0.0 2.6 0.00 0.00 0.00 88 1019.0
20260502012504 47 190 0.0 2.6 0.00 0.00 0.00 89 1019.1
20260502012004 47 198 0.0 2.6 0.00 0.00 0.00 90 1019.1
20260502011504 47 198 0.0 1.7 0.00 0.00 0.00 90 1019.2
20260502011004 46 198 0.0 1.7 0.00 0.00 0.00 91 1019.3
20260502010504 46 198 0.0 0.9 0.00 0.00 0.00 92 1019.4
20260502010004 46 198 0.0 1.7 0.00 0.00 0.00 92 1019.5
20260502005503 45 201 0.9 2.6 0.00 0.00 0.00 92 1019.6
20260502005004 44 236 0.0 0.0 0.00 0.00 0.00 92 1019.6
20260502004504 44 236 0.0 0.0 0.00 0.00 0.00 92 1019.7
20260502002503 44 236 0.0 0.0 0.00 0.00 0.00 91 1020.0
20260502002003 44 236 0.0 0.0 0.00 0.00 0.00 91 1020.1
20260502001503 44 236 0.0 0.0 0.00 0.00 0.00 91 1020.1
20260502001004 44 236 0.0 0.0 0.00 0.00 0.00 90 1020.1
20260502000504 44 236 0.0 0.0 0.00 0.00 0.00 90 1020.2
20260502000004 44 236 0.0 0.0 0.00 0.00 0.00 90 1020.3
20260501235504 44 236 0.0 0.0 0.00 0.00 0.00 90 1020.3
20260501235004 44 236 0.0 0.0 0.00 0.00 0.00 90 1020.4
20260501234503 44 236 0.0 0.0 0.00 0.00 0.00 90 1020.4
20260501234003 44 236 0.0 0.0 0.00 0.00 0.00 90 1020.5
20260501233504 45 236 0.0 0.0 0.00 0.00 0.00 90 1020.6
20260501232504 45 236 0.0 0.0 0.00 0.00 0.00 90 1020.8